When you browse on this site, cookies collect data to enhance your experience and personalize the content and advertising you see.
Visit our Privacy Policy to learn more. By continuing to use the site, you agree to this use of cookies and data.
  • In Hungary
  • List of Countries
  • For 7 days
  • Water Temperature
  • Satellite Maps
  • Weather Map
  • News
  • Weather Widgets
  • user-avatar
    Login

    Hourly Weather Golden Sands

    Today, 21 January, Monday

    Time Temperature Precipitation Wind Pressure Humidity
    00:00 +7°C° 0.1 mm 5 mps 760 mmHg 92%
    01:00 +6°C° 0.1 mm 4 mps 760 mmHg 93%
    02:00 +6°C° 0 mm 4 mps 760 mmHg 93%
    03:00 +5°C° 0 mm 5 mps 760 mmHg 91%
    04:00 +3°C° 0 mm 6 mps 760 mmHg 89%
    05:00 +2°C° 0 mm 7 mps 760 mmHg 87%
    06:00 +2°C° 0 mm 7 mps 761 mmHg 86%
    07:00 +2°C° 0 mm 7 mps 761 mmHg 84%
    08:00 0°C° 0 mm 7 mps 762 mmHg 83%
    09:00 0°C° 0 mm 7 mps 762 mmHg 81%
    10:00 +2°C° 0 mm 7 mps 763 mmHg 79%
    11:00 +2°C° 0 mm 7 mps 763 mmHg 77%
    12:00 +2°C° 0 mm 7 mps 763 mmHg 74%
    13:00 +3°C° 0 mm 7 mps 763 mmHg 71%
    14:00 +3°C° 0 mm 6 mps 764 mmHg 68%
    15:00 +3°C° 0 mm 6 mps 764 mmHg 70%
    16:00 +2°C° 0 mm 6 mps 764 mmHg 72%
    17:00 +1°C° 0 mm 6 mps 764 mmHg 74%
    18:00 +1°C° 0 mm 6 mps 765 mmHg 76%
    19:00 -1°C° 0 mm 6 mps 765 mmHg 78%
    20:00 0°C° 0 mm 5 mps 765 mmHg 80%
    21:00 -1°C° 0 mm 5 mps 765 mmHg 81%
    22:00 -1°C° 0 mm 5 mps 766 mmHg 82%
    23:00 -1°C° 0 mm 4 mps 766 mmHg 82%

    Tomorrow, 22 January, Tuesday

    Time Temperature Precipitation Wind Pressure Humidity
    00:00 -1°C° 0 mm 4 mps 766 mmHg 83%
    01:00 -1°C° 0 mm 4 mps 766 mmHg 84%
    02:00 0°C° 0 mm 3 mps 766 mmHg 84%
    03:00 0°C° 0 mm 3 mps 765 mmHg 85%
    04:00 0°C° 0 mm 3 mps 765 mmHg 85%
    05:00 0°C° 0 mm 3 mps 765 mmHg 86%
    06:00 +1°C° 0 mm 3 mps 765 mmHg 85%
    07:00 +1°C° 0 mm 3 mps 765 mmHg 83%
    08:00 +1°C° 0 mm 3 mps 765 mmHg 82%
    09:00 +2°C° 0 mm 3 mps 764 mmHg 80%
    10:00 +3°C° 0 mm 4 mps 764 mmHg 79%
    11:00 +3°C° 0 mm 4 mps 764 mmHg 77%
    12:00 +3°C° 0.1 mm 4 mps 764 mmHg 78%
    13:00 +3°C° 0.1 mm 4 mps 763 mmHg 79%
    14:00 +3°C° 0.1 mm 5 mps 762 mmHg 81%
    15:00 +3°C° 0 mm 5 mps 762 mmHg 83%
    16:00 +3°C° 0 mm 6 mps 761 mmHg 85%
    17:00 +3°C° 0 mm 6 mps 761 mmHg 87%
    18:00 +3°C° 0 mm 6 mps 760 mmHg 88%
    19:00 +3°C° 0 mm 6 mps 760 mmHg 89%
    20:00 +3°C° 0 mm 7 mps 760 mmHg 90%
    21:00 +4°C° 0 mm 7 mps 759 mmHg 90%
    22:00 +4°C° 0 mm 7 mps 759 mmHg 90%
    23:00 +4°C° 0 mm 7 mps 758 mmHg 90%

    Day after tomorrow, 23 January, Wednesday

    Time Temperature Precipitation Wind Pressure Humidity
    00:00 +4°C° 0 mm 7 mps 758 mmHg 91%
    01:00 +5°C° 0 mm 7 mps 757 mmHg 92%
    02:00 +5°C° 0 mm 7 mps 757 mmHg 93%
    03:00 +5°C° 0.4 mm 7 mps 756 mmHg 94%
    04:00 +5°C° 0.4 mm 7 mps 755 mmHg 95%
    05:00 +5°C° 0.4 mm 7 mps 754 mmHg 96%
    06:00 +6°C° 2.2 mm 8 mps 754 mmHg 95%
    07:00 +6°C° 2.2 mm 9 mps 754 mmHg 93%
    08:00 +7°C° 2.2 mm 10 mps 753 mmHg 91%
    09:00 +7°C° 0 mm 10 mps 753 mmHg 88%
    10:00 +8°C° 0 mm 11 mps 753 mmHg 85%
    11:00 +8°C° 0 mm 11 mps 753 mmHg 82%
    12:00 +9°C° 0 mm 10 mps 753 mmHg 80%
    13:00 +11°C° 0 mm 10 mps 752 mmHg 77%
    14:00 +11°C° 0 mm 9 mps 752 mmHg 75%
    15:00 +11°C° 0 mm 9 mps 752 mmHg 77%
    16:00 +10°C° 0 mm 9 mps 752 mmHg 79%
    17:00 +9°C° 0 mm 8 mps 752 mmHg 82%
    18:00 +9°C° 0 mm 8 mps 752 mmHg 84%
    19:00 +9°C° 0 mm 8 mps 753 mmHg 86%
    20:00 +7°C° 0 mm 8 mps 753 mmHg 88%
    21:00 +7°C° 0 mm 8 mps 753 mmHg 88%
    22:00 +8°C° 0 mm 7 mps 753 mmHg 88%
    23:00 +8°C° 0 mm 7 mps 753 mmHg 88%

    24 January, Thursday

    Time Temperature Precipitation Wind Pressure Humidity
    00:00 +8°C° 0 mm 7 mps 753 mmHg 90%
    01:00 +7°C° 0 mm 8 mps 753 mmHg 91%
    02:00 +7°C° 0 mm 8 mps 753 mmHg 93%
    03:00 +8°C° 0.5 mm 7 mps 753 mmHg 94%
    04:00 +8°C° 0.5 mm 6 mps 752 mmHg 95%
    05:00 +8°C° 0.5 mm 6 mps 752 mmHg 97%
    06:00 +7°C° 0.2 mm 6 mps 752 mmHg 96%
    07:00 +7°C° 0.2 mm 6 mps 752 mmHg 95%
    08:00 +7°C° 0.2 mm 6 mps 752 mmHg 94%
    09:00 +8°C° 0 mm 6 mps 752 mmHg 89%
    10:00 +8°C° 0 mm 6 mps 752 mmHg 85%
    11:00 +9°C° 0 mm 5 mps 752 mmHg 80%
    12:00 +9°C° 0 mm 6 mps 751 mmHg 80%
    13:00 +9°C° 0 mm 6 mps 751 mmHg 80%
    14:00 +9°C° 0 mm 7 mps 751 mmHg 80%
    15:00 +8°C° 0 mm 7 mps 751 mmHg 84%
    16:00 +7°C° 0 mm 8 mps 751 mmHg 88%
    17:00 +6°C° 0 mm 8 mps 751 mmHg 92%
    18:00 +6°C° 0 mm 9 mps 751 mmHg 92%
    19:00 +5°C° 0 mm 9 mps 751 mmHg 92%
    20:00 +5°C° 0 mm 10 mps 752 mmHg 92%
    21:00 +5°C° 0.1 mm 10 mps 752 mmHg 91%
    22:00 +4°C° 0.1 mm 11 mps 752 mmHg 91%
    23:00 +4°C° 0.1 mm 12 mps 752 mmHg 91%

    25 January, Friday

    Time Temperature Precipitation Wind Pressure Humidity
    00:00 +4°C° 0.1 mm 12 mps 752 mmHg 91%
    01:00 +3°C° 0.1 mm 11 mps 752 mmHg 91%
    02:00 +3°C° 0.1 mm 11 mps 752 mmHg 91%
    03:00 +3°C° 0 mm 11 mps 752 mmHg 91%
    04:00 +3°C° 0 mm 11 mps 753 mmHg 91%
    05:00 +3°C° 0 mm 11 mps 753 mmHg 91%
    06:00 +2°C° 0.8 mm 10 mps 753 mmHg 92%
    07:00 +2°C° 0.8 mm 10 mps 753 mmHg 92%
    08:00 +2°C° 0.8 mm 9 mps 754 mmHg 93%
    09:00 +2°C° 0.2 mm 9 mps 754 mmHg 93%
    10:00 +2°C° 0.2 mm 8 mps 754 mmHg 93%
    11:00 +4°C° 0.2 mm 8 mps 755 mmHg 92%
    12:00 +2°C° 0 mm 8 mps 754 mmHg 93%
    13:00 +2°C° 0 mm 8 mps 754 mmHg 93%
    14:00 +2°C° 0 mm 8 mps 754 mmHg 93%
    15:00 +2°C° 0.1 mm 8 mps 754 mmHg 92%
    16:00 +2°C° 0.1 mm 9 mps 754 mmHg 92%
    17:00 +2°C° 0.1 mm 9 mps 754 mmHg 92%
    18:00 +2°C° 0.3 mm 9 mps 754 mmHg 92%
    19:00 +2°C° 0.3 mm 9 mps 754 mmHg 93%
    20:00 +4°C° 0.3 mm 8 mps 754 mmHg 94%
    21:00 +4°C° 1 mm 8 mps 754 mmHg 95%
    22:00 +4°C° 1 mm 8 mps 754 mmHg 96%
    23:00 +4°C° 1 mm 7 mps 754 mmHg 97%

    26 January, Saturday

    Time Temperature Precipitation Wind Pressure Humidity
    00:00 +4°C° 0.1 mm 8 mps 753 mmHg 97%
    01:00 +4°C° 0.1 mm 8 mps 753 mmHg 96%
    02:00 +4°C° 0.1 mm 8 mps 753 mmHg 96%
    03:00 +4°C° 0.5 mm 8 mps 752 mmHg 96%
    04:00 +4°C° 0.5 mm 8 mps 752 mmHg 96%
    05:00 +4°C° 0.5 mm 8 mps 752 mmHg 96%
    06:00 +4°C° 0.4 mm 8 mps 752 mmHg 95%
    07:00 +4°C° 0.4 mm 8 mps 752 mmHg 94%
    08:00 +3°C° 0.4 mm 9 mps 753 mmHg 94%
    09:00 +2°C° 0.8 mm 9 mps 753 mmHg 93%
    10:00 +2°C° 0.8 mm 10 mps 753 mmHg 92%
    11:00 +1°C° 0.8 mm 10 mps 754 mmHg 91%
    12:00 +1°C° 0.2 mm 11 mps 754 mmHg 90%
    13:00 -1°C° 0.2 mm 12 mps 754 mmHg 89%
    14:00 -1°C° 0.2 mm 12 mps 754 mmHg 88%
    15:00 -2°C° 0.1 mm 12 mps 754 mmHg 88%
    16:00 -2°C° 0.1 mm 12 mps 754 mmHg 89%
    17:00 -3°C° 0.1 mm 11 mps 755 mmHg 89%
    18:00 -3°C° 0.1 mm 11 mps 755 mmHg 89%
    19:00 -3°C° 0.1 mm 11 mps 755 mmHg 88%
    20:00 -4°C° 0.1 mm 11 mps 756 mmHg 88%
    21:00 -4°C° 0 mm 11 mps 756 mmHg 88%
    22:00 -4°C° 0 mm 11 mps 756 mmHg 88%
    23:00 -4°C° 0 mm 11 mps 756 mmHg 88%
    Show more